;H (mm);Q (m3/s);stage (m)
;;;
24/1/2013 00:00;0.00;1.232;0.17
24/1/2013 00:15;0.00;1.232;0.17
24/1/2013 00:30;0.00;1.717;0.20
24/1/2013 00:45;0.00;1.381;0.18
24/1/2013 01:00;0.00;1.381;0.18
24/1/2013 01:15;0.00;1.232;0.17
24/1/2013 01:30;0.00;1.381;0.18
24/1/2013 01:45;0.00;1.232;0.17
24/1/2013 02:00;0.00;1.232;0.17
24/1/2013 02:15;0.00;1.381;0.18
24/1/2013 02:30;0.00;1.542;0.19
24/1/2013 02:45;0.00;1.381;0.18
24/1/2013 03:00;0.00;1.232;0.17
24/1/2013 03:15;0.00;1.717;0.20
24/1/2013 03:30;0.00;1.381;0.18
24/1/2013 03:45;0.00;1.381;0.18
24/1/2013 04:00;0.00;1.381;0.18
24/1/2013 04:15;0.01;1.381;0.18
24/1/2013 04:30;0.08;1.232;0.17
24/1/2013 04:45;0.79;1.381;0.18
24/1/2013 05:00;0.40;1.542;0.19
24/1/2013 05:15;0.53;1.542;0.19
24/1/2013 05:30;0.50;1.542;0.19
24/1/2013 05:45;0.00;1.717;0.20
24/1/2013 06:00;0.00;1.542;0.19
24/1/2013 06:15;0.00;1.906;0.21
24/1/2013 06:30;0.00;1.381;0.18
24/1/2013 06:45;0.00;1.542;0.19
24/1/2013 07:00;0.00;1.542;0.19
24/1/2013 07:15;0.00;1.542;0.19
24/1/2013 07:30;0.00;1.717;0.20
24/1/2013 07:45;0.00;1.542;0.19
24/1/2013 08:00;0.00;1.381;0.18
24/1/2013 08:15;0.00;1.542;0.19
24/1/2013 08:30;0.00;1.381;0.18
24/1/2013 08:45;0.00;1.542;0.19
24/1/2013 09:00;0.00;1.381;-1.27
24/1/2013 09:15;0.00;1.232;0.17
24/1/2013 09:30;0.00;1.381;0.18
24/1/2013 09:45;0.19;1.542;0.19
24/1/2013 10:00;0.00;1.381;0.18
24/1/2013 10:15;0.48;1.381;0.18
24/1/2013 10:30;0.48;1.717;0.20
24/1/2013 10:45;0.68;1.381;0.18
24/1/2013 11:00;2.23;1.542;0.19
24/1/2013 11:15;2.03;1.542;0.19
24/1/2013 11:30;1.45;1.906;0.21
24/1/2013 11:45;0.68;2.109;0.22
24/1/2013 12:00;0.48;2.817;0.25
24/1/2013 12:15;0.30;2.329;0.23
24/1/2013 12:30;0.11;1.717;0.20
24/1/2013 12:45;0.00;2.565;0.24
24/1/2013 13:00;0.01;3.378;0.27
24/1/2013 13:15;0.20;2.329;0.23
24/1/2013 13:30;1.03;1.906;0.21
24/1/2013 13:45;1.48;1.906;0.21
24/1/2013 14:00;0.14;3.088;0.26
24/1/2013 14:15;1.89;1.906;0.21
24/1/2013 14:30;1.67;1.906;0.21
24/1/2013 14:45;0.46;4.017;0.29
24/1/2013 15:00;0.59;6.469;0.35
24/1/2013 15:15;4.39;4.367;-1.03
24/1/2013 15:30;2.87;3.378;0.27
24/1/2013 15:45;0.00;10.193;0.42
24/1/2013 16:00;0.01;5.555;0.33
24/1/2013 16:15;1.42;6.469;0.35
24/1/2013 16:30;2.18;5.999;0.34
24/1/2013 16:45;1.26;6.965;0.36
24/1/2013 17:00;0.29;5.999;0.34
24/1/2013 17:15;0.00;4.74;0.31
24/1/2013 17:30;0.00;5.555;0.33
24/1/2013 17:45;0.01;4.367;-1.02
24/1/2013 18:00;0.01;4.017;0.29
24/1/2013 18:15;0.19;4.367;-1.02
24/1/2013 18:30;0.00;3.088;0.26
24/1/2013 18:45;0.00;4.367;0.30
24/1/2013 19:00;0.00;6.469;0.35
24/1/2013 19:15;0.00;3.687;0.28
24/1/2013 19:30;0.00;4.017;0.29
24/1/2013 19:45;0.00;5.999;0.34
24/1/2013 20:00;0.40;4.74;0.31
24/1/2013 20:15;0.19;5.136;0.32
24/1/2013 20:30;0.00;4.74;0.31
24/1/2013 20:45;0.00;5.555;0.33
24/1/2013 21:00;0.00;5.999;0.34
24/1/2013 21:15;0.00;6.965;0.36
24/1/2013 21:30;0.21;5.555;0.33
24/1/2013 21:45;0.03;5.136;0.32
24/1/2013 22:00;0.01;5.999;0.34
24/1/2013 22:15;0.00;6.469;0.35
24/1/2013 22:30;0.00;5.555;0.33
24/1/2013 22:45;0.42;5.999;0.34
24/1/2013 23:00;0.01;7.489;0.37
24/1/2013 23:15;1.27;4.367;0.30
24/1/2013 23:30;0.89;5.999;0.34
24/1/2013 23:45;0.31;5.136;0.32
25/1/2013 00:00;0.89;5.999;0.34
25/1/2013 00:15;0.62;7.489;0.37
25/1/2013 00:30;0.21;4.74;0.31
25/1/2013 00:45;0.00;6.965;0.36
25/1/2013 01:00;0.39;7.489;0.37
25/1/2013 01:15;0.39;5.999;0.34
25/1/2013 01:30;0.58;5.999;0.34
25/1/2013 01:45;0.08;4.017;0.29
25/1/2013 02:00;1.02;4.017;0.29
25/1/2013 02:15;2.42;5.555;0.33
25/1/2013 02:30;1.08;4.367;0.30
25/1/2013 02:45;0.39;4.367;0.30
25/1/2013 03:00;0.19;4.367;0.30
25/1/2013 03:15;0.73;5.999;0.34
25/1/2013 03:30;0.44;4.017;0.29
25/1/2013 03:45;0.00;8.042;0.38
25/1/2013 04:00;0.00;5.136;0.32
25/1/2013 04:15;0.00;5.136;0.32
25/1/2013 04:30;0.00;6.469;0.35
25/1/2013 04:45;0.00;5.999;0.34
25/1/2013 05:00;0.00;5.555;0.33
25/1/2013 05:15;0.00;5.136;-1.00
25/1/2013 05:30;0.00;4.74;0.31
25/1/2013 05:45;0.00;6.469;0.35
25/1/2013 06:00;0.00;4.367;0.30
25/1/2013 06:15;0.01;6.469;0.35
25/1/2013 06:30;0.01;5.555;-1.01
25/1/2013 06:45;0.00;4.74;0.31
25/1/2013 07:00;0.00;4.74;0.31
25/1/2013 07:15;0.00;4.017;0.29
25/1/2013 07:30;0.00;5.999;0.34
25/1/2013 07:45;0.00;5.136;0.32
25/1/2013 08:00;0.01;6.469;0.35
25/1/2013 08:15;0.00;4.74;0.31
25/1/2013 08:30;0.00;6.469;0.35
25/1/2013 08:45;0.50;5.555;0.33
25/1/2013 09:00;0.10;5.999;0.34
25/1/2013 09:15;0.00;5.136;0.32
25/1/2013 09:30;0.00;6.469;0.35
25/1/2013 09:45;0.41;5.555;0.33
25/1/2013 10:00;0.01;6.469;0.35
25/1/2013 10:15;0.00;5.136;0.32
25/1/2013 10:30;0.00;5.999;0.34
25/1/2013 10:45;0.24;5.555;0.33
25/1/2013 11:00;0.01;4.367;0.30
25/1/2013 11:15;0.00;4.367;0.30
25/1/2013 11:30;0.00;4.74;0.31
25/1/2013 11:45;0.22;4.74;0.31
25/1/2013 12:00;0.00;5.999;0.34
25/1/2013 12:15;0.80;5.555;0.33
25/1/2013 12:30;1.58;5.555;-1.03
25/1/2013 12:45;1.54;5.555;0.33
25/1/2013 13:00;0.87;4.74;0.31
25/1/2013 13:15;1.28;5.555;0.33
25/1/2013 13:30;1.51;3.378;0.27
25/1/2013 13:45;3.76;5.555;0.33
25/1/2013 14:00;0.43;6.965;-1.02
25/1/2013 14:15;0.00;9.401;0.40
25/1/2013 14:30;0.01;4.367;0.30
25/1/2013 14:45;2.24;4.367;0.30
25/1/2013 15:00;3.76;5.999;0.34
25/1/2013 15:15;3.71;4.74;0.31
25/1/2013 15:30;3.22;5.136;0.32
25/1/2013 15:45;5.62;12.787;0.48
25/1/2013 16:00;3.64;10.193;0.42
25/1/2013 16:15;1.38;11.021;0.44
25/1/2013 16:30;0.00;13.727;0.50
25/1/2013 16:45;0.00;13.252;0.49
25/1/2013 17:00;0.00;14.21;0.51
25/1/2013 17:15;0.00;12.787;0.48
25/1/2013 17:30;0.00;9.792;0.41
25/1/2013 17:45;0.00;9.792;-0.81
25/1/2013 18:00;0.00;9.401;0.40
25/1/2013 18:15;0.00;9.792;0.41
25/1/2013 18:30;0.00;5.136;0.32
25/1/2013 18:45;0.87;5.999;0.34
25/1/2013 19:00;0.10;3.378;0.27
25/1/2013 19:15;0.20;5.136;0.32
25/1/2013 19:30;0.21;6.469;0.35
25/1/2013 19:45;1.23;5.136;0.32
25/1/2013 20:00;0.62;5.999;0.34
25/1/2013 20:15;0.00;6.469;0.35
25/1/2013 20:30;0.00;5.555;0.33
25/1/2013 20:45;0.00;8.042;0.38
25/1/2013 21:00;0.00;9.792;0.41
25/1/2013 21:15;0.00;12.787;0.48
25/1/2013 21:30;0.00;10.193;0.42
25/1/2013 21:45;0.00;11.021;0.44
25/1/2013 22:00;0.00;13.252;0.49
25/1/2013 22:15;0.00;11.021;0.44
25/1/2013 22:30;0.00;14.21;0.51
25/1/2013 22:45;0.00;12.332;0.47
25/1/2013 23:00;0.00;15.207;0.53
25/1/2013 23:15;0.19;13.252;0.49
25/1/2013 23:30;0.00;11.021;0.44
25/1/2013 23:45;0.50;9.792;0.41
26/1/2013 00:00;0.72;12.787;0.48
26/1/2013 00:15;0.11;11.885;0.46
26/1/2013 00:30;0.10;12.332;0.47
26/1/2013 00:45;0.01;13.252;0.49
26/1/2013 01:00;0.78;11.448;0.45
26/1/2013 01:15;1.10;12.787;0.48
26/1/2013 01:30;0.10;12.332;0.47
26/1/2013 01:45;0.81;11.021;0.44
26/1/2013 02:00;1.21;12.787;0.48
26/1/2013 02:15;2.14;10.193;0.42
26/1/2013 02:30;1.50;6.965;0.36
26/1/2013 02:45;1.02;6.469;0.35
26/1/2013 03:00;0.63;5.555;0.33
26/1/2013 03:15;0.21;6.469;0.35
26/1/2013 03:30;0.00;13.252;0.49
26/1/2013 03:45;0.00;12.332;0.47
26/1/2013 04:00;0.00;15.207;0.53
26/1/2013 04:15;0.00;17.865;0.58
26/1/2013 04:30;0.00;15.719;0.54
26/1/2013 04:45;0.00;11.885;0.46
26/1/2013 05:00;0.00;15.207;0.53
26/1/2013 05:15;0.10;12.332;0.47
26/1/2013 05:30;0.11;13.252;0.49
26/1/2013 05:45;0.00;11.885;0.46
26/1/2013 06:00;0.00;11.885;-0.79
26/1/2013 06:15;0.70;11.885;0.46
26/1/2013 06:30;0.70;13.252;0.49
26/1/2013 06:45;0.62;14.21;0.51
26/1/2013 07:00;0.21;11.448;0.45
26/1/2013 07:15;0.21;14.21;0.51
26/1/2013 07:30;0.41;13.252;0.49
26/1/2013 07:45;0.52;11.885;0.46
26/1/2013 08:00;1.49;11.021;-0.71
26/1/2013 08:15;2.57;10.193;0.42
26/1/2013 08:30;2.92;5.999;0.34
26/1/2013 08:45;1.38;6.469;-0.88
26/1/2013 09:00;1.39;6.965;0.36
26/1/2013 09:15;1.02;6.469;0.35
26/1/2013 09:30;0.02;4.74;0.31
26/1/2013 09:45;0.10;5.136;0.32
26/1/2013 10:00;0.54;4.017;0.29
26/1/2013 10:15;0.24;5.136;0.32
26/1/2013 10:30;0.21;4.74;0.31
26/1/2013 10:45;0.69;7.489;0.37
26/1/2013 11:00;0.72;5.999;0.34
26/1/2013 11:15;2.09;6.965;0.36
26/1/2013 11:30;0.90;6.965;0.36
26/1/2013 11:45;0.30;4.74;0.31
26/1/2013 12:00;0.51;3.687;0.28
26/1/2013 12:15;0.19;4.74;0.31
26/1/2013 12:30;0.00;4.74;0.31
26/1/2013 12:45;0.01;6.469;0.35
26/1/2013 13:00;0.00;6.469;0.35
26/1/2013 13:15;0.00;5.555;0.33
26/1/2013 13:30;0.00;7.489;0.37
26/1/2013 13:45;0.12;6.469;0.35
26/1/2013 14:00;0.55;6.469;0.35
26/1/2013 14:15;0.73;10.602;0.43
26/1/2013 14:30;0.14;5.555;0.33
26/1/2013 14:45;0.21;5.136;0.32
26/1/2013 15:00;0.60;8.042;0.38
26/1/2013 15:15;1.57;4.367;0.30
26/1/2013 15:30;0.78;6.965;0.36
26/1/2013 15:45;0.01;5.136;0.32
26/1/2013 16:00;0.21;5.555;0.33
26/1/2013 16:15;0.33;5.555;0.33
26/1/2013 16:30;0.55;5.136;0.32
26/1/2013 16:45;0.16;6.469;0.35
26/1/2013 17:00;0.13;7.489;0.37
26/1/2013 17:15;0.00;5.999;0.34
26/1/2013 17:30;0.21;5.136;0.32
26/1/2013 17:45;0.32;5.999;0.34
26/1/2013 18:00;0.32;9.792;0.41
26/1/2013 18:15;0.62;9.792;0.41
26/1/2013 18:30;1.39;6.469;0.35
26/1/2013 18:45;0.45;6.965;0.36
26/1/2013 19:00;0.01;4.74;0.31
26/1/2013 19:15;0.11;6.469;0.35
26/1/2013 19:30;0.29;5.555;0.33
26/1/2013 19:45;0.10;4.74;0.31
26/1/2013 20:00;0.30;4.367;-1.00
26/1/2013 20:15;0.80;4.367;0.30
26/1/2013 20:30;0.80;5.136;0.32
26/1/2013 20:45;0.00;5.136;0.32
26/1/2013 21:00;0.19;5.999;0.34
26/1/2013 21:15;0.21;5.555;0.33
26/1/2013 21:30;0.19;6.469;0.35
26/1/2013 21:45;0.30;4.74;0.31
26/1/2013 22:00;0.12;6.469;0.35
26/1/2013 22:15;0.68;6.469;0.35
26/1/2013 22:30;0.30;4.367;0.30
26/1/2013 22:45;0.49;6.469;0.35
26/1/2013 23:00;0.53;5.999;0.34
26/1/2013 23:15;0.59;5.999;0.34
26/1/2013 23:30;1.55;6.469;0.35
26/1/2013 23:45;1.55;6.965;0.36
27/1/2013 00:00;0.58;5.136;0.32
27/1/2013 00:15;0.39;6.965;0.36
27/1/2013 00:30;0.62;4.74;0.31
27/1/2013 00:45;0.29;4.74;0.31
27/1/2013 01:00;0.11;7.489;0.37
27/1/2013 01:15;0.19;5.136;0.32
27/1/2013 01:30;0.00;5.555;0.33
27/1/2013 01:45;0.01;4.017;0.29
27/1/2013 02:00;0.21;6.965;0.36
27/1/2013 02:15;0.30;6.469;0.35
27/1/2013 02:30;0.29;6.965;0.36
27/1/2013 02:45;0.00;7.489;0.37
27/1/2013 03:00;0.00;7.489;0.37
27/1/2013 03:15;0.00;6.469;0.35
27/1/2013 03:30;0.00;5.555;0.33
27/1/2013 03:45;0.00;6.965;0.36
27/1/2013 04:00;0.00;9.401;0.40
27/1/2013 04:15;0.00;9.792;0.41
27/1/2013 04:30;0.00;7.489;0.37
27/1/2013 04:45;0.01;13.727;0.50
27/1/2013 05:00;0.00;8.042;0.38
27/1/2013 05:15;0.11;6.469;0.35
27/1/2013 05:30;0.11;9.401;-0.88
27/1/2013 05:45;0.00;11.448;-0.79
27/1/2013 06:00;0.00;12.332;0.47
27/1/2013 06:15;0.02;12.332;0.47
27/1/2013 06:30;0.02;13.727;0.50
27/1/2013 06:45;0.00;11.885;0.46
27/1/2013 07:00;0.00;12.787;0.48
27/1/2013 07:15;0.00;13.252;0.49
27/1/2013 07:30;0.00;13.727;0.50
27/1/2013 07:45;0.00;14.21;0.51
27/1/2013 08:00;0.00;16.241;0.55
27/1/2013 08:15;0.00;15.207;0.53
27/1/2013 08:30;0.00;14.704;0.52
27/1/2013 08:45;0.01;16.773;0.56
27/1/2013 09:00;0.01;15.207;0.53
27/1/2013 09:15;0.01;16.773;0.56
27/1/2013 09:30;0.00;17.314;0.57
27/1/2013 09:45;0.00;17.314;0.57
27/1/2013 10:00;0.00;13.252;0.49
27/1/2013 10:15;0.00;17.314;-0.67
27/1/2013 10:30;0.00;14.704;0.52
27/1/2013 10:45;0.00;11.885;0.46
27/1/2013 11:00;0.00;13.727;0.50
27/1/2013 11:15;0.00;13.252;0.49
27/1/2013 11:30;0.00;13.727;0.50
27/1/2013 11:45;0.00;11.448;0.45
27/1/2013 12:00;0.00;13.252;0.49
27/1/2013 12:15;0.19;11.885;0.46
27/1/2013 12:30;0.21;11.448;-0.77
27/1/2013 12:45;0.40;11.448;-1.17
27/1/2013 13:00;0.00;11.021;0.44
27/1/2013 13:15;0.21;11.885;0.46
27/1/2013 13:30;0.00;12.332;0.47
27/1/2013 13:45;0.00;12.787;0.48
27/1/2013 14:00;0.00;9.792;0.41
27/1/2013 14:15;0.00;11.021;0.44
27/1/2013 14:30;0.00;9.792;0.41
27/1/2013 14:45;0.00;10.193;0.42
27/1/2013 15:00;0.00;12.332;0.47
27/1/2013 15:15;0.00;10.193;0.42
27/1/2013 15:30;0.00;9.792;0.41
27/1/2013 15:45;0.00;8.624;0.39
27/1/2013 16:00;0.00;11.021;0.44
27/1/2013 16:15;0.00;9.401;0.40
27/1/2013 16:30;0.19;8.624;0.39
27/1/2013 16:45;3.10;11.021;0.44
27/1/2013 17:00;0.77;13.727;0.50
27/1/2013 17:15;0.00;12.787;0.48
27/1/2013 17:30;0.00;13.252;0.49
27/1/2013 17:45;0.00;11.021;0.44
27/1/2013 18:00;0.00;10.602;0.43
27/1/2013 18:15;0.00;10.602;0.43
27/1/2013 18:30;0.00;10.193;0.42
27/1/2013 18:45;0.00;9.792;0.41
27/1/2013 19:00;0.00;10.193;0.42
27/1/2013 19:15;0.00;9.401;0.40
27/1/2013 19:30;0.00;8.624;0.39
27/1/2013 19:45;0.00;5.999;0.34
27/1/2013 20:00;0.00;9.401;0.40
27/1/2013 20:15;0.00;8.042;0.38
27/1/2013 20:30;0.00;10.193;0.42
27/1/2013 20:45;0.00;8.624;0.39
27/1/2013 21:00;0.00;9.401;0.40
27/1/2013 21:15;0.00;8.624;0.39
27/1/2013 21:30;0.00;7.489;0.37
27/1/2013 21:45;0.00;5.999;0.34
27/1/2013 22:00;0.00;8.042;0.38
27/1/2013 22:15;0.00;8.042;0.38
27/1/2013 22:30;0.00;6.965;0.36
27/1/2013 22:45;0.00;8.624;0.39
27/1/2013 23:00;0.00;5.999;0.34
27/1/2013 23:15;0.00;7.489;0.37
27/1/2013 23:30;0.00;6.469;0.35
27/1/2013 23:45;0.00;4.367;0.30
28/1/2013 00:00;0.00;5.999;0.34
28/1/2013 00:15;0.00;5.999;0.34
28/1/2013 00:30;0.00;5.999;0.34
28/1/2013 00:45;0.00;5.136;0.32
28/1/2013 01:00;0.00;6.469;0.35
28/1/2013 01:15;0.00;5.999;0.34
28/1/2013 01:30;0.00;6.469;0.35
28/1/2013 01:45;0.00;5.999;-0.99
28/1/2013 02:00;0.00;5.555;0.33
28/1/2013 02:15;0.00;6.469;0.35
28/1/2013 02:30;0.00;6.469;0.35
28/1/2013 02:45;0.00;5.136;0.32
28/1/2013 03:00;0.00;6.965;0.36
28/1/2013 03:15;0.00;4.017;0.29
28/1/2013 03:30;0.00;5.999;0.34
28/1/2013 03:45;0.01;5.136;0.32
28/1/2013 04:00;0.00;6.965;0.36
28/1/2013 04:15;0.00;4.74;0.31
28/1/2013 04:30;0.00;4.367;0.30
28/1/2013 04:45;0.00;5.136;0.32
28/1/2013 05:00;0.00;4.367;0.30
28/1/2013 05:15;0.00;4.367;0.30
28/1/2013 05:30;0.00;4.367;0.30
28/1/2013 05:45;0.00;4.367;0.30
28/1/2013 06:00;0.00;4.74;0.31
28/1/2013 06:15;0.00;3.687;0.28
28/1/2013 06:30;0.00;5.555;0.33
28/1/2013 06:45;0.00;3.378;0.27
28/1/2013 07:00;0.00;4.017;0.29
28/1/2013 07:15;0.00;3.687;0.28
28/1/2013 07:30;0.00;4.74;0.31
28/1/2013 07:45;0.00;4.017;0.29
28/1/2013 08:00;0.00;4.017;0.29
28/1/2013 08:15;0.00;4.74;0.31
28/1/2013 08:30;0.00;4.017;0.29
28/1/2013 08:45;0.00;4.74;0.31
28/1/2013 09:00;0.00;3.378;0.27
28/1/2013 09:15;0.00;4.017;0.29
28/1/2013 09:30;0.00;3.378;0.27
28/1/2013 09:45;0.00;3.378;0.27
28/1/2013 10:00;0.00;3.687;0.28
28/1/2013 10:15;0.00;4.367;0.30
28/1/2013 10:30;0.00;4.367;0.30
28/1/2013 10:45;0.00;3.378;0.27
28/1/2013 11:00;0.00;4.017;0.29
28/1/2013 11:15;0.00;3.687;0.28
28/1/2013 11:30;0.00;5.136;0.32
28/1/2013 11:45;0.00;3.687;0.28
28/1/2013 12:00;0.00;3.088;0.26
28/1/2013 12:15;0.00;3.088;0.26
28/1/2013 12:30;0.00;4.74;0.31
28/1/2013 12:45;0.00;3.378;0.27
28/1/2013 13:00;0.00;4.367;0.30
28/1/2013 13:15;0.00;4.74;0.31
28/1/2013 13:30;0.00;5.555;0.33
28/1/2013 13:45;0.00;4.017;0.29
28/1/2013 14:00;0.00;6.965;0.36
28/1/2013 14:15;0.00;4.367;0.30
28/1/2013 14:30;0.00;4.367;0.30
28/1/2013 14:45;0.00;4.74;0.31
28/1/2013 15:00;0.00;5.999;0.34
28/1/2013 15:15;0.00;4.74;0.31
28/1/2013 15:30;0.00;4.367;0.30
28/1/2013 15:45;0.00;4.017;0.29
28/1/2013 16:00;0.00;4.017;0.29
28/1/2013 16:15;0.00;5.999;0.34
28/1/2013 16:30;0.00;4.367;0.30
28/1/2013 16:45;0.00;4.017;0.29
28/1/2013 17:00;0.00;4.017;0.29
28/1/2013 17:15;0.00;4.017;0.29
28/1/2013 17:30;0.00;5.555;0.33
28/1/2013 17:45;0.00;5.555;0.33
28/1/2013 18:00;0.00;5.136;0.32
28/1/2013 18:15;0.00;5.999;0.34
28/1/2013 18:30;0.00;4.74;0.31
28/1/2013 18:45;0.00;6.469;0.35
28/1/2013 19:00;0.00;5.555;0.33
28/1/2013 19:15;0.00;4.74;0.31
28/1/2013 19:30;0.00;4.74;0.31
28/1/2013 19:45;0.00;4.017;0.29
28/1/2013 20:00;0.00;5.555;0.33
28/1/2013 20:15;0.00;4.367;0.30
28/1/2013 20:30;0.00;4.367;0.30
28/1/2013 20:45;0.00;4.367;-1.04
28/1/2013 21:00;0.00;4.367;0.30
28/1/2013 21:15;0.00;4.74;0.31
28/1/2013 21:30;0.00;4.017;0.29
28/1/2013 21:45;0.00;5.136;0.32
28/1/2013 22:00;0.00;3.378;0.27
28/1/2013 22:15;0.00;3.378;0.27
28/1/2013 22:30;0.00;5.999;0.34
28/1/2013 22:45;0.00;4.367;0.30
28/1/2013 23:00;0.00;4.017;0.29
28/1/2013 23:15;0.00;4.367;0.30
28/1/2013 23:30;0.00;3.687;0.28
28/1/2013 23:45;0.00;4.017;0.29
29/1/2013 00:00;0.00;4.017;0.29
29/1/2013 00:15;0.00;4.367;0.30
29/1/2013 00:30;0.00;3.378;0.27
29/1/2013 00:45;0.00;3.687;0.28
29/1/2013 01:00;0.00;5.136;0.32
29/1/2013 01:15;0.00;5.555;0.33
29/1/2013 01:30;0.00;5.555;0.33
29/1/2013 01:45;0.00;4.367;0.30
29/1/2013 02:00;0.00;4.74;0.31
29/1/2013 02:15;0.00;3.378;0.27
29/1/2013 02:30;0.00;3.378;-1.04
29/1/2013 02:45;0.00;3.378;0.27
29/1/2013 03:00;0.00;4.017;0.29
29/1/2013 03:15;0.00;3.687;0.28
29/1/2013 03:30;0.00;5.999;0.34
29/1/2013 03:45;0.00;4.74;0.31
29/1/2013 04:00;0.00;4.367;0.30
29/1/2013 04:15;0.00;2.817;0.25
29/1/2013 04:30;0.00;4.367;0.30
29/1/2013 04:45;0.00;3.378;0.27
29/1/2013 05:00;0.00;3.378;0.27
29/1/2013 05:15;0.00;3.378;0.27
29/1/2013 05:30;0.00;3.687;0.28
29/1/2013 05:45;0.00;2.329;0.23
29/1/2013 06:00;0.00;4.017;0.29
29/1/2013 06:15;0.00;3.687;0.28
29/1/2013 06:30;0.00;3.687;0.28
29/1/2013 06:45;0.00;3.687;0.28
29/1/2013 07:00;0.00;2.817;0.25
29/1/2013 07:15;0.00;2.109;0.22
29/1/2013 07:30;0.00;3.378;0.27
29/1/2013 07:45;0.00;4.017;0.29
29/1/2013 08:00;0.00;2.817;0.25
29/1/2013 08:15;0.00;3.088;0.26
29/1/2013 08:30;0.00;3.088;0.26
29/1/2013 08:45;0.00;2.817;0.25
29/1/2013 09:00;0.00;2.817;0.25
29/1/2013 09:15;0.00;3.378;0.27
29/1/2013 09:30;0.00;2.565;0.24
29/1/2013 09:45;0.00;4.74;0.31
29/1/2013 10:00;0.00;3.088;0.26
29/1/2013 10:15;0.00;3.378;0.27
29/1/2013 10:30;0.00;3.378;0.27
29/1/2013 10:45;0.00;3.378;-1.16
29/1/2013 11:00;0.00;3.088;0.26
29/1/2013 11:15;0.00;2.817;0.25
29/1/2013 11:30;0.00;2.329;0.23
29/1/2013 11:45;0.00;3.687;0.28
29/1/2013 12:00;0.00;3.088;0.26
29/1/2013 12:15;0.00;2.329;0.23
29/1/2013 12:30;0.00;2.329;0.23
29/1/2013 12:45;0.00;2.109;0.22
29/1/2013 13:00;0.00;2.817;0.25
29/1/2013 13:15;0.00;2.329;0.23
29/1/2013 13:30;0.00;3.088;0.26
29/1/2013 13:45;0.00;2.109;0.22
29/1/2013 14:00;0.00;3.378;0.27
29/1/2013 14:15;0.00;2.109;0.22
29/1/2013 14:30;0.00;2.329;0.23
29/1/2013 14:45;0.00;2.329;0.23
29/1/2013 15:00;0.00;2.109;0.22
29/1/2013 15:15;0.00;1.906;0.21
29/1/2013 15:30;0.00;2.329;0.23
29/1/2013 15:45;0.00;2.109;0.22
29/1/2013 16:00;0.00;2.565;0.24
29/1/2013 16:15;0.00;2.109;0.22
29/1/2013 16:30;0.00;2.109;0.22
29/1/2013 16:45;0.00;2.329;0.23
29/1/2013 17:00;0.00;1.906;0.21
29/1/2013 17:15;0.00;2.565;0.24
29/1/2013 17:30;0.00;2.109;0.22
29/1/2013 17:45;0.00;2.109;0.22
29/1/2013 18:00;0.00;2.109;0.22
29/1/2013 18:15;0.00;2.109;0.22
29/1/2013 18:30;0.00;2.329;0.23
29/1/2013 18:45;0.00;2.565;0.24
29/1/2013 19:00;0.00;2.109;0.22
29/1/2013 19:15;0.00;2.817;0.25
29/1/2013 19:30;0.00;2.565;0.24
29/1/2013 19:45;0.00;1.906;0.21
29/1/2013 20:00;0.00;2.329;0.23
29/1/2013 20:15;0.00;1.906;0.21
29/1/2013 20:30;0.00;2.329;0.23
29/1/2013 20:45;0.00;2.565;0.24
29/1/2013 21:00;0.00;1.906;0.21
29/1/2013 21:15;0.00;2.565;0.24
29/1/2013 21:30;0.00;2.565;0.24
29/1/2013 21:45;0.00;2.329;0.23
29/1/2013 22:00;0.00;1.906;0.21
29/1/2013 22:15;0.00;2.329;0.23
29/1/2013 22:30;0.00;2.109;0.22
29/1/2013 22:45;0.00;2.329;0.23
29/1/2013 23:00;0.00;2.329;0.23
29/1/2013 23:15;0.00;1.906;0.21
29/1/2013 23:30;0.00;2.817;0.25
29/1/2013 23:45;0.00;2.565;0.24
30/1/2013 00:00;0.00;2.329;0.23
